TIMESTAMP,CO2_1_1_1,H2O_1_1_1,TAU_1_1_1,TAU_SSITC_TEST_1_1_1,H_1_1_1,H_SSITC_TEST_1_1_1,LE_1_1_1,LE_SSITC_TEST_1_1_1,FC_1_1_1,FC_SSITC_TEST_1_1_1,WD_0_0_1,WS_0_0_1,WS_MAX_0_0_1,U_SIGMA_0_0_1,V_SIGMA_0_0_1,W_SIGMA_0_0_1,USTAR_0_0_1,MO_LENGTH_0_0_1,ZL_0_0_1,FETCH_MAX_0_0_1,FETCH_70_0_0_1,FETCH_80_0_0_1,FETCH_90_0_0_1,PA_0_0_1,RH_0_0_1,TA_0_0_1,VPD_0_0_1,T_SONIC_0_0_1,T_SONIC_SIGMA_0_0_1
[yyyymmddHHMMSS],[mmolCO2 mol-1],[mmolH2O mol-1],[kg m-1 s-2],[#],[W m-2],[#],[W m-2],[#],[umolCO2 m-2 s-1],[#],[Decimal degrees],[m s-1],[m s-1],[m s-1],[m s-1],[m s-1],[m s-1],[m],[#],[m],[m],[m],[m],[kPa],[%],[deg C],[hPa],[deg C],[deg C]
20191018003000,408.17317574121540,6.9978111522929316,8.56237333074553499E-003,1,-4.3604288214804052,1,5.5783669635550197,0,0.22526808885234317,0,91.350517559898009,2.0019625534541188,2.9132557083036934,0.41459115992408718,0.30759824102419830,0.11103321765769919,8.54186225554329354E-002,11.911024476334639,1.5951608560413975,726.06371725043243,7443.0000000000000,-9999.,-9999.,93.895488700737843,76.286551724137937,4.8613793103448302,2.0430083929878071,4.8514593675402011,0.43468029313357798
20191018010000,409.11852202877031,7.0142744886328154,8.21717085187070526E-003,0,-10.014997367679319,1,13.619171713405461,0,1.3199773332957769,1,94.092598004374437,2.3189387545062381,2.9161619890052370,0.24150908697315318,0.18063363364191054,0.11861887291623695,8.36256226438498729E-002,4.8658792822311101,3.9047413423063984,1069.9992689127573,9396.0000000000000,-9999.,-9999.,93.887865175564244,78.513333333333335,4.4823333333333153,1.8027451298174573,4.4931247211032996,0.49484883505255650
20191018013000,413.45777339476319,7.3500191071568448,4.53599905069341641E-002,1,-15.658569275556436,0,7.2480245096796132,0,2.5565536826763480,0,97.698218540768238,2.4969651404516178,3.7769347132652813,0.39459479642837619,0.34283433400900820,0.21525252218304719,0.19611343762094294,40.137399747786880,0.47337396342042892,211.89496015261307,2085.0000000000000,3893.0000000000000,-9999.,93.878190539448383,88.843333333333334,3.3883333333333212,0.86672090275105462,3.3720164327570501,0.52916298380152582
20191018020000,412.61223770366132,7.1007389975508888,0.12873395572255347,0,-34.583500585356923,0,10.213051035608867,0,3.7641734729659202,0,93.912680694366799,2.3246524233380512,4.3795780868538232,0.64687215659007602,0.53923223411411680,0.38978656531593425,0.33007729730261576,86.635970334267824,0.21930844574940689,109.61902386430732,200.41853681846459,239.84980096316013,300.26348919310902,93.866776153399925,89.030000000000001,2.8696666666666601,0.82148981878451766,2.7404725274428756,0.19872140980413100
20191018023000,412.26049282333736,6.9955915979343652,0.11888347510122071,0,-23.592275209531017,0,1.9791218280645013,1,1.3340365641363121,0,98.823538259417376,2.1950143604264678,5.0698722673891412,0.63431512125409562,0.51479698856075229,0.37524247676323302,0.31708586735229866,112.60827596421835,0.16872649756255315,109.43262410231965,200.07773860439616,239.44195254199863,299.75291136686906,93.896278546507787,88.343333333333334,2.7729999999999677,0.86694171865185810,2.6445716171650702,0.17810953912662530
20191018030000,411.86890368124176,7.0039635828852882,0.13514363159624709,0,-34.688575865348753,0,4.2632198836034210,2,2.0688927790057261,1,113.56428750916035,2.1746271146089078,4.3151394806614469,0.64954875818384583,0.57815968982478272,0.38422313267130209,0.33800083955929128,92.789305254389774,0.20476497747137867,113.01141589835223,206.62091140464511,247.27245923424530,309.55577654383501,93.932943282986116,88.579999999999998,2.7576666666666938,0.84841574033139522,2.6426664530436028,0.23368334327353318
20191018033000,411.14849150074383,6.7431264470225614,0.10313830861068753,0,-21.186284335160959,0,3.1246040704429232,1,0.44259459320515843,0,120.96187197687334,2.5672623794326563,4.3772597673294271,0.58483767763238281,0.45174585186897476,0.34855901476975837,0.29501732611956144,101.03051936328383,0.18806198483133718,109.57509662719734,200.33822381915382,239.75368681521138,300.14316568519689,93.949640996961818,87.816666666666663,2.3483333333333576,0.87914818978141063,2.1748357077703986,0.28154510672975824
20191018040000,411.57150365301561,6.5859049708882980,9.02207386914397474E-002,0,-21.154359801728130,0,-0.38603461442451859,2,0.65692715549882863,0,114.43200755402093,2.8405958346144162,5.4099498307428018,0.58492963159102929,0.43035106554888142,0.32968882122451459,0.27570025100305590,82.567390476642856,0.23011505983557554,108.52286525180480,198.41440927295153,237.45137215249829,297.26094093007663,93.933403634692056,88.739999999999995,1.8690000000000282,0.78518313793537009,1.6905187721054062,0.19427121215930165
20191018043000,412.62228061885355,6.6364644969068545,0.16073697490008965,0,-21.583674483212501,0,-1.8205417059160227,1,0.40242396664153179,0,116.06375331107370,2.9280285920650351,5.9254831468449094,0.82001054079200353,0.60012903631723813,0.44175048282608059,0.36799770199265797,192.40813235617998,9.87484248577798623E-002,108.19055754259928,197.80684479641585,236.72427264821761,296.35069863148311,93.907161547261396,89.896666666666661,1.7909999999999968,0.70060472418629161,1.6144486766750674,0.19712308914328236
20191018050000,412.19864872561698,6.5261889625838911,7.53285040126745048E-002,0,-14.784406032931429,0,-0.34626242484179143,0,0.64538062017098041,0,128.05760015176475,2.0954302973266561,5.1150541327061729,0.55833359207349220,0.46751066437687927,0.30579862013041209,0.25178145364842458,89.980443528650980,0.21115699428565435,107.18289224854034,195.96451126051400,234.51946994429375,293.59054727757700,93.930368925130210,89.883333333333326,1.5626666666666438,0.69014512179369036,1.3959717703925207,0.18166453915545894
20191018053000,412.56667158909784,6.4846698836400760,0.16673676974931745,1,-38.685084508666321,0,-1.9598005110556320,1,1.0316113735762900,0,132.88537436912924,2.5671928775322215,5.2114042459678895,0.69794070615188097,0.61727725854619564,0.42217164243327615,0.37449575202030189,113.16616781307053,0.16789470181038973,113.76827415426334,208.00468968401063,248.92848841274187,311.62892856374162,93.943170861111113,89.973333333333329,1.4616666666666447,0.67906654198168670,1.2807294108073393,0.27666874911174461
20191018060000,413.29899252459620,6.3969344347820449,0.13274205655115301,0,-26.715395261895125,0,-1.7636787529907432,0,0.88564244285869331,0,129.67464185583583,2.5272244414219047,4.5876288172762978,0.68615638288198566,0.54568200390305499,0.40551145080697087,0.33398742993875807,116.23303692913861,0.16346471280435818,107.21029708465055,196.01461604124765,234.57943256989236,293.66561336940248,93.939900701332164,90.426666666666662,1.2016666666666538,0.63636331319441863,0.99470710124865036,0.21489677459250026
20191018063000,414.05294302153766,6.3636263038159262,0.26220408466232709,0,-54.657652600289893,0,-2.2317968819745055,0,2.8854386606626941,0,134.29248914571306,3.0453910143158289,6.1524443437342979,0.95639861858229847,0.76333396323243674,0.56267841461230095,0.46925018573716787,157.57372065596951,0.12057848174749058,108.28548804798531,197.98040803679336,236.93198351827937,296.61072799293197,93.947135343532977,90.963333333333338,1.0480000000000018,0.59408226253678442,0.86671047804088630,0.23319646336452618
20191018070000,413.37155639148449,6.3243297591162868,0.20522267509961870,0,-39.977300145223843,0,-1.9795331858549476,0,1.8282432546828677,0,126.98221406666275,2.7650350370592829,5.8215551710050022,0.81875605394627393,0.67975918529995427,0.49511244516664044,0.41512939960169704,149.14759823257876,0.12739058640670603,108.75234205630730,198.83396605945507,237.95347446964459,297.88951344951533,93.935306316189241,90.703333333333333,1.0000000000000000,0.60906529486016781,0.79162601470943628,0.18129715381197836
20191018073000,413.00660962937030,6.3147432893302238,0.22575434077060588,0,-46.034399553736030,0,-2.6226934307694636,0,2.0185688126459151,0,126.38051079908570,2.7047253659507127,6.2854996409272719,0.91186036185699060,0.69536343846368465,0.52414371498410506,0.43534905915044614,149.37942287196853,0.12719288664198877,107.93559301899606,197.34068833050509,236.16640241654505,295.65231130071902,93.929954358289919,91.079999999999998,0.92066666666664787,0.58105617793019404,0.72869864484999880,0.18875088684631974
20191018080000,413.73766847717366,6.3728505167564355,0.33049732873692372,0,-44.221771453065728,0,-1.6333019968667064,1,2.4056415601701899,1,129.23133807728794,2.6618146633300284,6.5669039193731900,1.0075167483237737,0.79826789515303753,0.61028790346196138,0.52676000510275678,275.42682788688381,6.89838391770724313E-002,111.30567939656325,203.50228106262009,243.54025522414469,304.88350000262807,93.911681156196181,92.216666666666669,0.87299999999999045,0.50527293569184961,0.67241179331341527,0.17541372012167017
20191018083000,416.16133212484584,6.3759788562908355,0.23260014033327647,0,-37.972564044078212,0,-1.9519306774905418,0,1.1202312364669915,0,128.11777809633014,2.3646528138599159,5.6531403181132349,0.85608853262378926,0.67629560994777194,0.50219101019157353,0.44167537247248345,189.08075282408774,0.10048616644591397,112.99059607029338,206.58284611880993,247.22690480911024,309.49874780925069,93.913234032335069,94.193333333333328,0.58633333333335713,0.36922990937749889,0.38250397745764531,0.16998640149099981
20191018090000,417.53977560005467,6.3529351727685617,0.11117726470319532,0,-23.257965801793723,0,-0.78716722685728657,0,0.70755746472738490,0,130.93596763801875,2.2929958393107950,4.3423690983449355,0.64258106832206174,0.51383707891838948,0.36821020212028432,0.30518051845774447,101.85200697889533,0.18654517042493796,107.75159089878863,197.00427377029959,235.76380010945667,295.14830098677203,93.933317325954860,95.609999999999999,0.33300000000002683,0.27407647817056158,0.15204865943064760,0.15058308362018918
20191018093000,418.43260262354903,6.3389683145017122,0.17024764497612388,0,-33.729867005171634,0,0.36565587966105256,1,1.3143711280523378,0,129.54960665291418,2.3199388391448670,4.9796928066707302,0.71471592002921902,0.56813837332030148,0.42846215782054181,0.37758090970846375,133.01031380747941,0.14284606551263995,113.17042479921737,206.91163038871446,247.62037560751170,309.99132655790584,93.933475631944461,96.079999999999998,0.23500000000001364,0.24300125961847813,3.60499844020978344E-002,0.22349491263187535
20191018100000,419.90429043491497,6.2847585283036285,0.16609833458220358,0,-27.334211377907668,0,-0.12626004982701822,2,1.4302977421305312,0,129.87057733159207,2.2595582631455398,4.6078015767067813,0.70730629574386816,0.57566520109031827,0.42787505476601367,0.37275032484753368,157.89585195416640,0.12033248350004325,112.13359610095154,205.01597684873164,245.35176247682202,307.15129212170956,93.921070228709354,97.519999999999996,-8.99999999999749889E-002,0.15015026263120945,-0.28437895142855041,0.14553253134386043
20191018103000,419.80799056742984,6.3377983464882561,0.19762717896137721,0,-37.698216121752274,0,-1.0354991358437933,1,2.1983020217314615,0,122.77323458472341,2.5464142083345629,5.8123611202154315,0.76891347792363074,0.63531175972661080,0.45037404749854676,0.40666202051992306,148.64557179884028,0.12782082755692448,115.39396755123761,210.97697570199543,252.48555564382821,316.08195464010896,93.904326960092320,98.040000000000006,-5.00000000000113687E-002,0.11901268937903296,-0.20927962735402161,0.18180139743405574
20191018110000,419.20472579462080,6.4866128066916104,0.16388934929280946,0,-36.248055032216257,0,-0.70780634850914204,2,1.8448363185863090,0,127.50159586806393,2.5803438767969813,5.6472644705831243,0.80248825059352868,0.75987978826853997,0.48025279966903939,0.37066920622336264,117.03723368768932,0.16234149937874456,101.78134415098897,186.08875860278303,222.70071631541313,278.79487019854338,93.863303473958339,97.643333333333331,0.31966666666664878,0.14698934396275148,0.18371435631650002,0.25962633060088380
20191018113000,418.39569759728164,6.6596067606270735,0.29949264998678565,0,-46.200336482282097,0,-0.55016971467837972,1,2.1357621388110672,0,129.04800510398431,2.5459347500779490,6.2533535155190103,0.94115231953127165,0.75204624899990979,0.57031197284393631,0.50153357699921519,227.45801188732190,8.35319004257023684E-002,112.98087128077151,206.56506610200140,247.20562667007010,309.47211010412826,93.857844396484381,96.926666666666662,0.78466666666668061,0.19824490262033806,0.63164347585046698,0.21663576817543481
20191018120000,417.85287386588766,6.8363748834026428,0.41744146264965243,0,-55.673502512411801,0,-5.4745682254772010,1,1.7334642923632477,0,134.88380247821604,2.9496882719511968,8.1043761822369085,1.1546557731138622,0.94813772790381534,0.71006870377484610,0.59271590510268124,311.53481879961873,6.09883674422309965E-002,108.36570672247730,198.12707335819871,237.10750444915578,296.83045937031790,93.843737382812506,95.976666666666674,1.2830000000000155,0.26900973554918894,1.1474387851291681,0.23089649242929003
20191018123000,419.10985372763969,6.8345081209981000,0.44388508300260354,0,-59.519671378443249,0,-0.12547181084684672,2,4.0937761722466908,0,144.19811938490045,2.9539737470226033,7.1444792875577958,1.2668560987552802,1.0343560259951456,0.76561683593888108,0.61118867085192119,319.50954514645559,5.94661420562282439E-002,104.56490714918122,191.17799953536314,228.79123790144064,286.41948049666678,93.844725168619803,96.006666666666661,1.2749999999999773,0.26685035319197709,1.1058299060398440,0.17618120254062833
20191018130000,419.44421002183805,6.8310876446884325,0.62073487653416948,0,-35.651403323850140,0,-2.4965204097212665,1,2.1724184704711358,0,140.03193697118525,3.2728841858176452,8.8853777220822892,1.3980057800865842,1.1280080495992428,0.89431164916334627,0.72282185638442920,882.21730802142201,2.15366438940219028E-002,105.60605279122582,193.08154582539211,231.06929663809910,289.27133971067957,93.826622070421010,95.969999999999999,1.2706666666666706,0.26921668317014336,1.0765144040391874,0.11447006794026356
20191018133000,418.65559907543974,6.9395021804435935,0.56999516527350247,0,-16.319901052186253,1,3.0895606979733024,1,1.7487949347043226,0,138.78494692344327,3.5127215295877114,9.2000253480583556,1.4688389103738158,1.1898818955289683,0.85429153261189039,0.69334676017600705,1700.6404161813070,1.11722618251443410E-002,105.95718476851184,193.72352706767131,231.83758422081016,290.23314459591273,93.799276292100700,94.293333333333337,1.7316666666666833,0.39404498120261566,1.4975257339477821,0.22020044467593322
20191018140000,417.84112953316122,7.0656556604229621,1.1088334145599150,0,55.479753861795722,1,22.307330100749201,1,0.23376286586699666,0,147.18959893750008,3.7628270121326297,9.6229473825417742,1.7582036322110688,1.3363589531247928,1.1054653707975652,0.96810531673423084,-1361.7266892548846,-1.39528733261419010E-002,112.60479126380898,205.87747188642442,246.38275200803750,308.44196867312303,93.788879243706603,92.246666666666670,2.2893333333333317,0.55713195390419856,2.0522481265597889,0.16886522644230981
20191018143000,417.21669442289260,7.2122557834813597,0.87831919269818981,0,42.959453452891211,0,24.240409205088273,0,0.83797465946540672,1,142.91454994674748,3.5883663963935315,8.9005829476331435,1.6647399701836925,1.2418727198108623,1.0241922819053804,0.86269365907268869,-1244.4427638682964,-1.52678777615607841E-002,109.15282633432933,199.56617904758872,238.82974640663397,298.98650193241531,93.786605379557301,89.810000000000002,2.9543333333333521,0.76767589556972893,2.6914871588813298,0.28137789472759017
20191018150000,415.37854086601925,7.4794287984043608,1.0224216982537717,0,88.005639807146039,0,35.793819614614954,0,-1.2500525481683198,2,141.04381412570814,3.7230162625766399,10.281524002806622,1.8615630097052385,1.3561781263354318,1.0243072633006471,0.93290009199165336,-767.90863939677786,-2.47425266825038459E-002,116.19269011863649,212.43729529469792,254.23318522546495,318.26977949504777,93.733568475273287,86.273333333333341,4.0306666666666615,1.1157543070799227,3.7943703405670703,0.37856540886740098
20191018153000,412.82969461271938,7.7645762288875941,1.0595640163628679,0,74.861158737594280,0,42.725705359585845,0,0.17554496629320862,2,141.59753337806353,4.2872772585429084,11.441151738432673,1.9437414472017676,1.4834174669858746,1.1353363064524138,0.95235549274195175,-960.05294453596991,-1.97905752053949731E-002,108.79139649896196,198.90537003640344,238.03892679322161,297.99648961849215,93.676191583777225,81.418999999999997,5.3856666666666797,1.6603772827343437,5.1453044891994182,0.52988597122162662
20191018160000,411.74387760369410,7.8999797944023005,1.1464771171544623,0,142.73838972485350,0,59.697219964059514,0,-0.50063962045207411,0,141.52222696242856,4.2693540643156584,13.794537661752868,2.1588921952413642,1.5582857965748869,1.2858049609445328,0.99305262002569572,-570.74121198729779,-3.32900438954509131E-002,101.83395976530576,186.18495672664363,222.81584090033061,278.93899251767982,93.643061984592038,75.992666666666665,6.6276666666666415,2.3377082186436393,6.3246994510226955,0.37441800056973240
20191018163000,411.33179369782061,7.9163100374857516,2.0870292713236727,0,207.37079685604368,0,93.873566139973562,1,-2.0814851813607467,1,140.29026674827648,4.6356245461935668,15.865748257642204,2.7331931533185565,1.8679308107666073,1.4588921919617028,1.3422767253367396,-969.90330787839002,-1.95895816063989432E-002,117.14128604033100,214.17163117870754,256.30874232305899,320.86813068667055,93.606486882161462,71.534999999999997,7.5336666666666474,2.9494281901647263,7.1682625139024481,0.29245583127670455
20191018170000,410.75933996074099,8.0337631286670561,1.7564459745191943,0,248.21396848057259,0,111.38930327864460,0,-0.48825269381156639,2,143.86599851446630,4.2103341792585018,12.998087817566624,2.4219503823736690,1.8099992084334542,1.3964117199833521,1.2332574278860178,-628.27461746115296,-3.02415527731785122E-002,113.36711731562801,207.27124704057368,248.05074489241278,310.53009783312478,93.561490988498264,69.160333333333341,8.2383333333333439,3.3526269634400991,7.8864532657199788,0.50583251150852593
20191018173000,410.94207169902751,7.9654388979954591,1.1681688389224001,0,146.08800741542811,0,39.424812852180409,0,-1.6351826841275374,1,137.62060629441018,5.0499972304473530,14.155860895280256,2.4552965930461395,1.7269762569478742,1.2401891117281736,1.0070343180981509,-580.96364828260903,-3.27042837467818176E-002,105.99856483709389,193.79918303053526,231.92812508555579,290.34649101460440,93.506246466207912,65.974666666666664,8.7993333333333226,3.8423064298479472,8.4120389882078825,0.34776011430923826
20191018180000,410.67431411314459,7.9069522702903576,1.6039769045696521,0,169.85596158701384,0,60.981523287570809,0,-1.1420388094632454,0,138.74081043426088,5.6553835942928279,14.633844225324454,2.6198421069542266,1.9862683267788537,1.3878810131852930,1.1814385065232516,-806.50033770320454,-2.35585766202023317E-002,110.07837494496002,201.25837709641081,240.85487527766179,301.52172296840826,93.452414705078141,63.194000000000003,9.3196666666666488,4.3048586898105290,8.8984559173584330,0.32348079287945408
20191018183000,410.65370557883813,7.8584377897383764,1.8612021821291136,0,176.64307861697651,0,60.370359237535567,0,-1.1380112834321823,0,140.54002802746072,5.5987487002952090,15.403998612558155,2.6683418326597188,2.0408669622248286,1.4961590301587999,1.2740353758568634,-972.18502310342672,-1.95436049193062587E-002,110.10774870126264,201.31208169121109,240.91914596129283,301.60218223767754,93.406846550998253,60.771666666666668,9.8023333333333085,4.7394737151826103,9.3805263417561946,0.27662371868039248
20191018190000,410.80099028092945,8.0043027041405477,1.9379252200512289,0,267.56185818219240,0,87.854320949575268,0,-1.6523929521416729,1,138.11796785547790,4.8068789370803087,14.139275366241439,2.4874425421880981,1.9424251719408698,1.4797583843087061,1.3016286771689629,-684.26046117553767,-2.77672042709564207E-002,113.00351147213695,206.60645959253614,247.25516410619517,309.53412509583080,93.367158705512153,59.595666666666666,10.362666666666655,5.0681258354750742,9.8966920250786075,0.38195266542597406
20191018193000,411.22685337010057,8.0549984079378536,1.7377292545310346,0,164.92985242332335,0,60.350778240160821,0,-1.1444177940724258,0,134.74092039388466,5.1440298058161691,13.368922975552589,2.5593468408073385,1.9473786646836997,1.3462759454116613,1.2336343555699267,-944.64123996877572,-2.01134559831709532E-002,116.76072833493930,213.47585032059658,255.47607034081088,319.82572417334785,93.311842982421894,58.677000000000000,10.681333333333328,5.2947157194523831,10.254824217902240,0.35351214166012612
20191018200000,411.48792672904312,8.1369931871355927,1.7506555142470075,0,174.77575679032245,0,61.015905973351771,0,-0.55304665992859015,1,134.56978108606233,4.6528954504564917,13.376122927437912,2.3513938727435986,1.9104060895623938,1.4128866012833585,1.2394354357880506,-903.74566801796470,-2.10236139130487269E-002,112.75821218036343,206.15797425297762,246.71844169949765,308.86221233244322,93.263602576605905,57.671666666666667,11.085666666666668,5.5713608129760113,10.631655751546305,0.30804132054221678
20191018203000,411.86435071470908,8.2668395100298628,1.5587861649536439,0,150.69465342947115,0,54.565566578915785,0,-2.5101702483924320,1,129.83570951513090,4.3295148751344241,12.676116250026091,2.1681628817761824,1.7900249594836843,1.2779538282013891,1.1703292930768578,-882.29128594750603,-2.15348381000902804E-002,116.70493728176486,213.37384648174989,255.35399779785536,319.67290383522243,93.238982903645848,57.451666666666668,11.377999999999986,5.7099648397704676,10.945102235582169,0.23260397154431803
20191018210000,411.83684121448755,8.3410632836595706,1.6998015006029357,0,136.34140419309469,0,49.809069645278647,0,-0.86003299226404317,2,132.94825308541408,4.8986982759970994,13.878322889315598,2.3386972753384732,1.7905641993711658,1.3147519855155423,1.2224679186470975,-1111.2098618029877,-1.70984803619107992E-002,118.13261239538132,215.98409192306434,258.47779492512080,323.58352715530680,93.214877025318216,57.645000000000003,11.458333333333314,5.7143412092640302,11.006689907894724,0.21225435320140298
20191018213000,412.09060593010690,8.5099992378264151,1.3466023951841859,0,91.365074794861428,0,44.030116422183639,0,0.15257203640938422,2,130.72902229603517,4.2222234896093092,12.345322509392705,2.1528288555224573,1.6461774431275564,1.2369371344331128,1.0877546398461619,-1168.1724695594689,-1.62647216015672016E-002,112.97999551153039,206.56346491651638,247.20371045999300,309.46971123649746,93.206612420959132,59.631333333333330,11.248333333333335,5.3710922259779110,10.848879994370691,0.17277442911015778
20191018220000,411.72682594492147,8.5695336485332341,0.98582343146775342,0,0.81709393657859353,2,24.674538063229061,0,0.91905730368036564,0,128.98030911726170,4.0524780942884187,12.961848348798302,1.8817243155306218,1.4672272513509572,1.0802121205942643,0.93023772299297980,-81686.716604083893,-2.32595956721929291E-004,111.10224141546863,203.13033154996288,243.09512665472505,304.32625185459233,93.190312606336818,61.408999999999999,10.908333333333360,5.0199390419337462,10.671764569317872,0.11238513250998876
20191018223000,412.03578039171003,8.6102491610532716,1.1221174996766288,0,-19.599916824601678,0,25.575480730653634,0,1.0016230407184701,1,128.22966880811558,4.4661835813952493,12.866239317338358,1.9540417689782916,1.5498049578216120,1.1511504651111502,0.99208469284930856,4130.3679519035713,4.60007442950534969E-003,111.17015834117939,203.25450535115462,243.24373098032021,304.51228683620667,93.176593237630215,62.775666666666666,10.646666666666647,4.7585498242085409,10.474407950507270,0.11716030806428103